Starlink 31845

operational
NORAD ID: 60129 Int'l Des: 2024-118 Owner: SPXS Country: US Constellation: starlink
LEOCIRCULAR

About Starlink 31845

Description loading...

Live Position

Loading 3D Globe...

Upcoming Passes

Altitude History

Altitude vs Time

uPlot chart will show altitude changes over time

Two-Line Element Set

1 60129U 24118S 25258.88720777 .00000454 00000-0 27440-4 0 9996
2 60129 53.1600 116.5000 0001036 83.8527 276.2592 15.30200637 68960
Epoch: Sep 15, 2025 • Age: 20 hours

Current Status

Altitude 476.3 km
Velocity 7.63 km/s
Sub-Earth Point -1.63°S, 149.52°W
Launch Date Jun 24, 2024
Age 1.2 years
Type internet

Technical Details

Classification Payload
Mass 730.00 kg
Dry Mass 700.00 kg
Total Mass 730.00 kg
Length 0.30 m
Diameter 4.10 m
Span 29.00 m
Shape Box + pan
Manufacturer SPXS
Bus Type Starlink V2M
Phase Status In Orbit
Owner/State SPXS/US

Large Constellations

Loading constellations...